CW6538 Weather Reports


Display with metric or nautical units.
time (UTC)temp
F
wind
direction
speed
MPH
gust
MPH
rain 1hr
in
rain 24hr
in
rain mn
in
humidity
%
barometer
mb
20260507113907 71 72 4.0 7.0 0.00 0.20 0.05 54 1015.1
20260507113406 71 36 4.0 9.0 0.00 0.20 0.05 53 1015.1
20260507112842 71 53 3.0 9.0 0.00 0.20 0.05 54 1015.2
20260507112342 71 5 4.0 9.0 0.00 0.20 0.05 54 1015.2
20260507111835 72 29 2.0 9.0 0.00 0.20 0.05 55 1015.1
20260507111339 72 46 4.0 9.0 0.00 0.20 0.05 54 1015.2
20260507110842 72 45 4.0 9.0 0.00 0.20 0.05 55 1015.2
20260507110333 72 22 3.0 9.0 0.00 0.20 0.05 56 1015.2
20260507105842 71 54 3.0 9.0 0.00 0.20 0.05 57 1015.2
20260507105331 71 13 3.0 9.0 0.00 0.20 0.05 56 1015.2
20260507104822 71 37 5.0 8.0 0.00 0.20 0.05 55 1015.2
20260507104330 72 14 4.0 10.0 0.00 0.20 0.05 55 1015.3
20260507103900 72 21 4.0 10.0 0.00 0.20 0.05 55 1015.4
20260507103345 72 30 3.0 11.0 0.00 0.20 0.05 55 1015.4
20260507102834 71 36 5.0 9.0 0.00 0.20 0.05 56 1015.3
20260507102341 72 63 3.0 10.0 0.00 0.20 0.05 56 1015.2
20260507101854 71 10 4.0 10.0 0.00 0.20 0.05 57 1015.3
20260507101324 71 44 4.0 10.0 0.00 0.20 0.05 57 1015.3
20260507100837 71 5 2.0 10.0 0.00 0.20 0.05 59 1015.3
20260507100337 71 26 4.0 10.0 0.00 0.20 0.05 59 1015.3
20260507095341 70 5 2.0 10.0 0.00 0.20 0.05 60 1015.3
20260507094834 69 5 4.0 12.0 0.00 0.20 0.05 60 1015.3
20260507094331 70 32 6.0 12.0 0.00 0.20 0.05 60 1015.2
20260507093846 70 13 6.0 12.0 0.00 0.20 0.05 61 1015.3
20260507093347 71 10 3.0 10.0 0.00 0.20 0.05 65 1015.2
20260507092339 70 37 3.0 8.0 0.00 0.20 0.05 65 1015.1
20260507090842 72 355 4.0 12.0 0.00 0.20 0.05 61 1014.9
20260507090331 72 11 1.0 3.0 0.00 0.20 0.05 59 1014.9
20260507085836 72 21 2.0 3.0 0.00 0.20 0.05 59 1015.0
20260507085324 72 347 1.0 2.0 0.00 0.20 0.05 60 1015.0
20260507084834 71 342 1.0 6.0 0.00 0.20 0.05 60 1015.1
20260507084326 71 360 2.0 6.0 0.00 0.20 0.05 59 1014.9
20260507083840 71 202 1.0 5.0 0.00 0.20 0.05 56 1014.9
20260507083356 71 228 1.0 5.0 0.00 0.20 0.05 56 1015.0
20260507082846 71 233 2.0 9.0 0.00 0.20 0.05 57 1014.8
20260507082331 70 220 2.0 9.0 0.00 0.20 0.05 57 1014.7
20260507081835 70 199 2.0 3.0 0.00 0.20 0.05 61 1014.6
20260507081322 69 137 1.0 4.0 0.00 0.20 0.05 64 1014.6
20260507080833 69 143 2.0 4.0 0.00 0.20 0.05 63 1014.6
20260507080324 68 184 1.0 3.0 0.00 0.20 0.05 63 1014.6
20260507075833 68 182 0.0 3.0 0.00 0.24 0.05 66 1014.7
20260507075325 67 180 2.0 3.0 0.00 0.24 0.05 68 1014.7
20260507074853 66 189 1.0 3.0 0.00 0.24 0.05 69 1014.7
20260507074322 66 205 1.0 6.0 0.00 0.24 0.05 68 1014.7
20260507073832 66 198 2.0 6.0 0.00 0.24 0.05 68 1014.7
20260507073327 66 205 1.0 5.0 0.00 0.24 0.05 68 1014.7
20260507072838 66 194 2.0 6.0 0.00 0.24 0.05 67 1014.7
20260507072326 66 221 2.0 8.0 0.00 0.24 0.05 68 1014.7
20260507071827 66 217 3.0 8.0 0.00 0.24 0.05 69 1014.8
20260507071337 66 247 1.0 8.0 0.00 0.24 0.05 71 1014.8
20260507070827 65 225 3.0 6.0 0.00 0.24 0.05 73 1014.8
20260507070334 64 205 2.0 6.0 0.00 0.24 0.05 75 1014.8
20260507065825 64 217 2.0 6.0 0.00 0.24 0.05 78 1014.7
20260507065336 64 187 2.0 6.0 0.00 0.24 0.05 78 1014.7
20260507064827 63 159 3.0 6.0 0.00 0.24 0.05 78 1014.7
20260507064338 63 180 2.0 6.0 0.00 0.24 0.05 79 1014.6
20260507063826 63 244 2.0 6.0 0.00 0.24 0.05 79 1014.6
20260507063345 62 232 1.0 8.0 0.00 0.24 0.05 81 1014.5
20260507062828 62 219 2.0 8.0 0.00 0.24 0.05 83 1014.6
20260507062340 62 207 2.0 6.0 0.00 0.24 0.05 83 1014.6
20260507061822 62 211 2.0 5.0 0.00 0.24 0.05 83 1014.6
20260507061333 62 212 2.0 6.0 0.00 0.24 0.05 83 1014.7
20260507060822 62 217 3.0 6.0 0.00 0.24 0.05 84 1014.7
20260507060325 61 193 3.0 6.0 0.00 0.24 0.05 84 1014.6
20260507055835 61 200 3.0 5.0 0.00 0.24 0.05 84 1014.6
20260507055348 61 200 3.0 5.0 0.00 0.24 0.05 85 1014.6
20260507054838 61 193 2.0 4.0 0.00 0.24 0.05 85 1014.6
20260507054324 61 200 2.0 4.0 0.00 0.24 0.05 86 1014.7
20260507053836 61 214 1.0 3.0 0.00 0.24 0.05 86 1014.6
20260507053325 61 210 1.0 4.0 0.00 0.24 0.05 86 1014.5
20260507052834 60 209 1.0 5.0 0.00 0.24 0.05 87 1014.4
20260507052345 60 211 2.0 5.0 0.00 0.24 0.05 87 1014.3
20260507051831 60 204 2.0 4.0 0.00 0.24 0.05 88 1014.2
20260507051340 60 185 2.0 4.0 0.00 0.24 0.05 88 1014.1
20260507050830 60 192 1.0 4.0 0.00 0.24 0.05 88 1014.2
20260507050338 60 200 2.0 4.0 0.00 0.24 0.05 88 1014.1
20260507045850 60 186 2.0 4.0 0.00 0.28 0.05 89 1014.0
20260507045322 59 213 0.0 0.0 0.00 0.28 0.05 89 1013.9
20260507044852 59 214 0.0 0.0 0.00 0.28 0.05 89 1013.8
20260507044359 59 214 0.0 0.0 0.00 0.28 0.05 89 1013.7
20260507043907 59 213 0.0 0.0 0.00 0.28 0.05 89 1013.5
20260507043325 59 214 0.0 0.0 0.00 0.28 0.05 89 1013.7
20260507042845 59 214 0.0 0.0 0.00 0.28 0.05 89 1013.7
20260507041844 59 214 0.0 0.0 0.00 0.28 0.05 89 1013.7
20260507041334 59 214 0.0 0.0 0.00 0.28 0.05 89 1013.6
20260507040850 59 214 0.0 0.0 0.00 0.28 0.05 89 1013.5
20260507040353 59 252 0.0 0.0 0.00 0.28 0.05 89 1013.5
20260507035424 60 252 0.0 0.0 0.00 0.28 0.05 88 1013.4
20260507034843 60 252 0.0 0.0 0.00 0.28 0.05 88 1013.4
20260507034327 60 252 0.0 0.0 0.00 0.28 0.05 88 1013.4
20260507033836 60 252 0.0 0.0 0.00 0.28 0.05 88 1013.4
20260507033327 60 252 0.0 0.0 0.00 0.28 0.05 88 1013.5
20260507032824 61 252 0.0 0.0 0.00 0.28 0.05 88 1013.5
20260507031521 61 253 0.0 0.0 0.00 0.28 0.05 87 1013.5
20260507030407 61 253 0.0 0.0 0.00 0.28 0.05 87 1013.4
20260507025852 61 252 0.0 0.0 0.00 0.28 0.05 87 1013.4
20260507024922 61 225 0.0 0.0 0.00 0.28 0.05 87 1013.4
20260507024542 61 225 0.0 0.0 0.04 0.28 0.05 87 1013.4
20260507023852 61 225 0.0 0.0 0.04 0.28 0.05 86 1013.3
20260507023336 61 225 0.0 0.0 0.04 0.28 0.05 86 1013.3
20260507022456 62 225 0.0 0.0 0.08 0.28 0.05 86 1013.2
20260507022021 62 225 0.0 0.0 0.16 0.28 0.05 86 1013.1
20260507014844 63 225 0.0 0.0 0.20 0.28 0.05 84 1013.4
20260507010845 64 223 2.0 4.0 0.04 0.12 0.01 78 1013.1
20260507010330 64 219 2.0 7.0 0.00 0.08 0.00 77 1013.1
20260507005833 64 217 2.0 7.0 0.00 0.12 0.00 76 1013.2
20260507005339 65 220 2.0 6.0 0.00 0.12 0.00 75 1013.2
20260507004828 65 206 2.0 6.0 0.00 0.12 0.00 75 1013.1
20260507004338 65 192 2.0 6.0 0.00 0.12 0.00 75 1013.1
20260507003827 65 201 2.0 4.0 0.00 0.12 0.00 74 1013.1
20260507003323 65 192 1.0 4.0 0.00 0.12 0.00 74 1013.1
20260507002852 65 209 2.0 4.0 0.00 0.12 0.00 74 1013.1
20260507002322 65 207 2.0 5.0 0.00 0.12 0.00 74 1013.1
20260507001853 65 202 2.0 7.0 0.00 0.12 0.00 74 1013.1
20260507001323 65 194 2.0 6.0 0.00 0.12 0.00 73 1013.1
20260507000825 65 198 3.0 7.0 0.00 0.12 0.00 73 1013.1
20260507000336 65 192 3.0 7.0 0.00 0.12 0.00 73 1013.3
20260506235824 66 202 3.0 7.0 0.00 0.12 0.00 72 1013.3
20260506235335 66 208 2.0 6.0 0.00 0.12 0.00 72 1013.4
20260506234825 66 216 3.0 6.0 0.00 0.12 0.00 72 1013.4
20260506234339 66 203 1.0 4.0 0.00 0.12 0.00 71 1013.3
20260506233827 66 191 1.0 3.0 0.00 0.12 0.00 71 1013.4
20260506233337 66 180 1.0 3.0 0.00 0.12 0.00 71 1013.4
20260506232825 66 178 0.0 3.0 0.00 0.12 0.00 71 1013.4
20260506232337 66 179 2.0 5.0 0.00 0.12 0.00 70 1013.4
20260506231827 66 192 2.0 5.0 0.00 0.12 0.00 70 1013.4
20260506231337 66 215 2.0 6.0 0.00 0.12 0.00 70 1013.4
20260506230828 66 230 2.0 6.0 0.00 0.12 0.00 70 1013.4
20260506230323 66 259 1.0 3.0 0.00 0.12 0.00 70 1013.4
20260506225833 66 227 1.0 4.0 0.00 0.20 0.00 70 1013.4
20260506225342 66 230 1.0 4.0 0.00 0.20 0.00 70 1013.4
20260506224829 66 203 1.0 4.0 0.00 0.20 0.00 70 1013.4
20260506224338 66 198 2.0 4.0 0.00 0.20 0.00 69 1013.4
20260506223828 66 197 0.0 2.0 0.00 0.20 0.00 69 1013.4
20260506223339 66 198 0.0 3.0 0.00 0.20 0.00 68 1013.5
20260506222830 67 204 1.0 3.0 0.00 0.20 0.00 67 1013.5
20260506222400 67 205 1.0 3.0 0.00 0.20 0.00 67 1013.5
20260506221830 67 232 2.0 4.0 0.00 0.20 0.00 67 1013.6
20260506221324 67 225 2.0 6.0 0.00 0.20 0.00 66 1013.5
20260506220834 67 213 2.0 8.0 0.00 0.20 0.00 66 1013.6
20260506220332 67 230 3.0 8.0 0.00 0.20 0.00 67 1013.6
20260506215841 67 219 2.0 8.0 0.00 0.39 0.05 67 1013.5
20260506215325 67 211 3.0 8.0 0.00 0.39 0.05 66 1013.5
20260506214832 67 235 3.0 7.0 0.00 0.39 0.05 66 1013.7
20260506214338 67 259 3.0 7.0 0.00 0.39 0.05 66 1013.6
20260506213840 67 219 3.0 9.0 0.00 0.39 0.05 66 1013.5
20260506213330 67 202 3.0 8.0 0.00 0.39 0.05 66 1013.5
20260506212841 67 215 3.0 7.0 0.00 0.39 0.05 66 1013.5
20260506212355 67 217 3.0 9.0 0.00 0.39 0.05 66 1013.5
20260506211838 67 214 3.0 9.0 0.00 0.39 0.05 66 1013.5
20260506211323 67 203 3.0 10.0 0.00 0.39 0.05 65 1013.5
20260506210831 67 216 4.0 13.0 0.00 0.39 0.05 65 1013.5
20260506210336 67 229 4.0 13.0 0.00 0.39 0.05 65 1013.4
20260506205825 67 221 4.0 13.0 0.00 0.83 0.05 65 1013.3
20260506205326 67 230 4.0 18.0 0.00 0.83 0.05 65 1013.3
20260506204826 67 231 6.0 18.0 0.00 0.83 0.05 65 1013.4
20260506204334 67 216 5.0 14.0 0.00 0.83 0.05 65 1013.4
20260506203828 67 263 5.0 14.0 0.00 0.83 0.05 65 1013.3
20260506203409 67 196 5.0 19.0 0.00 0.83 0.05 65 1013.2
20260506202824 67 202 5.0 19.0 0.00 0.83 0.05 65 1013.1
20260506202351 67 212 6.0 14.0 0.00 0.83 0.05 66 1013.0
20260506201858 67 219 4.0 11.0 0.00 0.83 0.05 66 1013.0
20260506201329 67 194 4.0 10.0 0.00 0.83 0.05 66 1013.0
20260506200837 68 227 5.0 9.0 0.00 0.83 0.05 66 1013.0
20260506200326 68 204 2.0 10.0 0.00 0.83 0.05 66 1013.0
20260506195837 68 211 3.0 10.0 0.00 1.18 0.05 65 1013.1
20260506195347 68 212 3.0 10.0 0.00 1.18 0.05 65 1013.0
20260506194838 68 193 5.0 9.0 0.00 1.18 0.05 65 1013.0
20260506194340 68 213 2.0 10.0 0.00 1.18 0.05 65 1012.8
20260506193835 68 186 3.0 10.0 0.00 1.18 0.05 66 1012.7
20260506193341 68 209 3.0 10.0 0.00 1.18 0.05 66 1012.7
20260506192832 68 199 4.0 11.0 0.00 1.18 0.05 66 1012.6
20260506192340 68 209 5.0 11.0 0.00 1.18 0.05 66 1012.6
20260506191841 68 187 4.0 10.0 0.00 1.18 0.05 65 1012.5
20260506191322 68 208 3.0 10.0 0.00 1.18 0.05 65 1012.4
20260506190827 68 223 4.0 11.0 0.00 1.18 0.05 65 1012.4
20260506190326 68 213 5.0 12.0 0.00 1.18 0.05 65 1012.3
20260506185835 68 192 6.0 12.0 0.00 1.57 0.05 65 1012.1
20260506185324 68 193 3.0 10.0 0.00 1.57 0.05 65 1012.1
20260506184832 69 202 4.0 9.0 0.00 1.57 0.05 64 1011.9
20260506184340 69 192 5.0 11.0 0.00 1.57 0.05 64 1011.9
20260506183842 69 185 5.0 11.0 0.00 1.57 0.05 63 1011.8
20260506183329 69 195 3.0 10.0 0.00 1.57 0.05 63 1011.8
20260506182841 69 203 7.0 10.0 0.00 1.57 0.05 63 1011.8
20260506182342 69 185 5.0 9.0 0.00 1.57 0.05 63 1011.7
20260506181829 69 173 3.0 9.0 0.00 1.57 0.05 63 1011.7
20260506181340 69 182 4.0 11.0 0.00 1.57 0.05 62 1011.6
20260506180337 69 169 5.0 11.0 0.00 1.57 0.05 61 1011.5
20260506175822 70 188 4.0 13.0 0.00 2.13 0.05 61 1011.4
20260506175333 70 166 4.0 17.0 0.00 2.13 0.05 61 1011.3
20260506174837 70 191 5.0 17.0 0.00 2.13 0.05 61 1011.3
20260506174331 70 217 7.0 15.0 0.00 2.13 0.05 60 1011.3
20260506173839 70 186 6.0 12.0 0.00 2.13 0.05 60 1011.3
20260506173347 70 156 4.0 12.0 0.00 2.13 0.05 60 1011.2
20260506172853 70 188 5.0 15.0 0.00 2.13 0.05 60 1011.2
20260506172358 70 213 7.0 15.0 0.00 2.13 0.05 60 1011.1
20260506171354 70 178 6.0 11.0 0.00 2.13 0.05 59 1011.0
20260506170822 71 177 5.0 13.0 0.00 2.13 0.05 59 1011.0
20260506170333 71 178 6.0 13.0 0.00 2.13 0.05 59 1011.1
20260506165854 71 194 4.0 10.0 0.00 2.17 0.05 58 1011.1
20260506165321 71 200 3.0 10.0 0.00 2.17 0.05 58 1011.3
20260506164831 71 162 5.0 10.0 0.00 2.17 0.05 57 1011.2
20260506164325 71 194 3.0 11.0 0.00 2.17 0.05 58 1011.2
20260506163833 72 192 6.0 11.0 0.00 2.17 0.05 57 1011.2
20260506163323 72 201 4.0 11.0 0.00 2.17 0.05 57 1011.1
20260506162831 72 167 4.0 15.0 0.00 2.17 0.05 56 1011.1
20260506162338 72 207 3.0 15.0 0.00 2.17 0.05 56 1011.2
20260506161828 72 189 6.0 13.0 0.00 2.17 0.05 55 1011.1
20260506161337 72 183 5.0 13.0 0.00 2.17 0.05 55 1011.2
20260506160826 73 160 5.0 12.0 0.00 2.17 0.05 54 1011.2
20260506160336 73 188 7.0 17.0 0.00 2.17 0.05 54 1011.3
20260506155840 74 170 8.0 15.0 0.00 2.17 0.05 53 1011.3
20260506155334 74 200 6.0 17.0 0.00 2.17 0.05 53 1011.3
20260506154829 74 131 6.0 14.0 0.00 2.17 0.05 53 1011.4
20260506154336 74 184 6.0 14.0 0.00 2.17 0.05 54 1011.3
20260506153827 74 148 3.0 12.0 0.00 2.17 0.05 55 1011.3
20260506153333 73 163 4.0 12.0 0.00 2.17 0.05 55 1011.2
20260506152838 73 200 6.0 13.0 0.00 2.17 0.05 54 1011.2
20260506152326 74 159 3.0 13.0 0.00 2.17 0.05 54 1011.3
20260506151854 74 167 4.0 16.0 0.00 2.17 0.05 54 1011.3
20260506151402 74 191 4.0 17.0 0.00 2.17 0.05 53 1011.2
20260506150827 74 195 7.0 17.0 0.00 2.17 0.05 52 1011.2
20260506150338 75 218 6.0 16.0 0.00 2.17 0.05 52 1011.1
20260506145847 75 192 6.0 16.0 0.00 2.17 0.05 51 1011.1
20260506145339 75 215 5.0 18.0 0.00 2.17 0.05 51 1011.0
20260506144847 75 155 6.0 17.0 0.00 2.17 0.05 50 1010.8
20260506144331 75 207 7.0 17.0 0.00 2.17 0.05 50 1010.9
20260506143832 75 190 8.0 19.0 0.00 2.17 0.05 50 1011.1
20260506143335 75 204 10.0 22.0 0.00 2.17 0.05 50 1011.2
20260506142824 75 199 9.0 22.0 0.00 2.17 0.05 49 1011.3
20260506142345 75 236 7.0 18.0 0.00 2.17 0.05 51 1011.3
20260506141830 74 214 7.0 24.0 0.00 2.17 0.05 51 1011.4
20260506141341 75 229 7.0 24.0 0.00 2.17 0.05 51 1011.4
20260506140902 75 250 8.0 19.0 0.00 2.17 0.05 51 1011.4
20260506140341 74 179 6.0 15.0 0.00 2.17 0.05 51 1011.6
20260506135848 74 240 6.0 12.0 0.00 2.17 0.05 52 1011.5
20260506135339 74 215 4.0 12.0 0.00 2.17 0.05 52 1011.7
20260506134829 74 226 3.0 17.0 0.00 2.17 0.05 52 1011.7
20260506134329 75 199 3.0 13.0 0.00 2.17 0.05 51 1011.8
20260506133821 75 180 6.0 13.0 0.00 2.17 0.05 50 1011.8
20260506133328 75 252 3.0 12.0 0.00 2.17 0.05 51 1011.9
20260506132835 75 193 5.0 10.0 0.00 2.17 0.05 50 1012.0
20260506132334 75 244 4.0 10.0 0.00 2.17 0.05 51 1012.1
20260506131900 75 225 4.0 12.0 0.00 2.17 0.05 51 1012.2
20260506131355 74 238 5.0 12.0 0.00 2.17 0.05 52 1012.2
20260506125833 73 198 1.0 5.0 0.00 2.17 0.05 56 1012.1
20260506125323 73 206 2.0 7.0 0.00 2.17 0.05 58 1012.2
20260506124847 72 235 3.0 7.0 0.00 2.17 0.05 57 1012.3
20260506124338 72 192 3.0 7.0 0.00 2.17 0.05 58 1012.3
20260506123829 72 194 2.0 7.0 0.00 2.17 0.05 58 1012.3
20260506123339 72 188 2.0 5.0 0.00 2.17 0.05 59 1012.3
20260506122852 72 174 2.0 6.0 0.00 2.17 0.05 60 1012.2
20260506122337 72 190 2.0 6.0 0.00 2.17 0.05 61 1012.2
20260506121828 72 182 2.0 6.0 0.00 2.17 0.05 61 1012.2
20260506121338 72 167 1.0 4.0 0.00 2.17 0.05 61 1012.1
20260506120832 72 174 2.0 3.0 0.00 2.17 0.05 60 1012.2
20260506120343 72 159 1.0 3.0 0.00 2.17 0.05 60 1012.2
20260506115834 72 250 0.0 2.0 0.00 2.17 0.05 59 1012.3
20260506115324 72 250 1.0 3.0 0.00 2.17 0.05 59 1012.4
20260506114855 72 252 1.0 3.0 0.00 2.17 0.05 59 1012.5
20260506114321 72 255 2.0 3.0 0.00 2.17 0.05 59 1012.5